軌道要素
Epoch 2011 Nov. 15.0 TT = JDT 2455880.5
T 2011 Oct. 26.34748 TT MPC
q 1.1151122 (2000.0) P Q
n 0.01497692 Peri. 192.18969 -0.49455294 -0.82038801
a 16.3000026 Node 288.07000 +0.82063704 -0.33197130
e 0.9315882 Incl. 17.57245 +0.28630794 -0.46557337
P 65.8
From 306 observations 2011 Sept. 30-2012 Mar. 28, mean residual 0".6.
|